Date,TemperatureHighF,TemperatureAvgF,TemperatureLowF,DewpointHighF,DewpointAvgF,DewpointLowF,HumidityHigh,HumidityAvg,HumidityLow,PressureMaxIn,PressureMinIn,WindSpeedMaxMPH,WindSpeedAvgMPH,GustSpeedMaxMPH,PrecipitationSumIn
2013-4-1,84.6,70.6,61.8,68.9,62.5,57.7,92,77,50,30.01,29.89,5,2,8,0.09
2013-4-2,81.3,67.4,54.8,61.8,52.8,47.3,94,64,31,30.13,29.99,2,0,7,0.00
2013-4-3,81.8,65.1,54.4,64.3,59.2,52.1,96,83,49,30.12,30.03,3,0,6,0.32
2013-4-4,78.3,70.3,64.5,71.3,65.8,63.3,97,86,69,30.07,29.86,7,1,15,0.11
2013-4-5,67.6,59.5,54.5,64.2,57.3,51.9,98,92,88,30.05,29.82,2,0,6,0.31
2013-4-6,72.8,60.5,49.1,57.6,53.3,47.4,94,79,51,30.19,30.04,3,1,9,0.00
2013-4-7,79.6,66.6,56.3,65.2,58.5,54.6,96,77,53,30.21,30.11,2,0,3,0.00
2013-4-8,87.2,69.5,56.2,66.6,60.0,54.5,96,75,42,30.18,30.09,2,0,7,0.00
2013-4-9,83.8,71.6,60.9,68.3,63.4,59.2,96,77,52,30.21,30.10,3,0,8,0.00
2013-4-10,85.0,71.7,58.8,67.9,63.8,56.8,96,78,56,30.16,30.01,2,0,5,0.00
2013-4-11,89.3,75.9,68.8,72.8,70.0,66.5,95,83,53,30.01,29.82,5,1,9,0.32
2013-4-12,88.8,77.5,71.9,73.9,70.2,66.7,96,80,52,29.89,29.76,8,3,17,0.00
2013-4-13,86.6,73.2,63.2,67.6,56.0,48.6,88,58,31,30.03,29.88,3,0,6,0.00
2013-4-14,76.2,65.5,61.1,66.0,61.7,57.4,96,88,60,30.03,29.88,1,0,5,1.25
2013-4-15,91.5,72.2,61.7,69.7,64.8,60.8,98,80,45,30.14,29.83,3,0,7,0.00
2013-4-16,84.4,72.7,65.1,72.0,66.5,63.4,96,82,58,30.20,30.10,2,0,9,0.00
2013-4-17,79.9,71.3,63.3,71.6,66.4,61.8,97,85,68,30.20,30.11,2,0,5,0.01
2013-4-18,89.2,75.3,65.3,71.9,66.8,63.8,97,78,51,30.11,29.98,2,0,7,0.00
2013-4-19,90.2,78.5,65.8,73.6,70.4,62.5,94,78,51,30.01,29.88,6,2,12,0.07
2013-4-20,65.1,56.0,49.9,61.8,53.0,48.2,95,90,78,30.21,30.00,4,1,9,0.77
2013-4-21,71.0,52.4,56.1,63.0,48.2,52.9,93,67,74,30.22,30.12,6,2,15,0.05
2013-4-22,65.4,62.6,59.4,63.6,59.6,55.6,96,90,76,30.17,30.07,7,3,12,1.04
2013-4-23,75.5,64.8,56.0,60.9,57.3,54.3,96,78,56,30.18,30.08,3,1,9,0.00
2013-4-24,88.3,70.0,54.6,67.1,59.8,52.9,97,74,38,30.17,30.09,3,0,6,0.01
2013-4-25,92.4,74.9,60.0,69.0,63.8,58.2,96,72,39,30.22,30.11,2,0,6,0.00
2013-4-26,81.8,72.0,63.2,67.8,62.7,54.9,89,73,57,30.31,30.17,3,1,9,0.00
2013-4-27,86.3,72.7,61.7,65.2,61.5,57.0,95,71,40,30.27,30.17,1,0,8,0.00
2013-4-28,84.9,73.8,66.0,68.0,65.1,62.7,94,76,53,30.19,30.01,4,0,7,0.00
2013-4-29,86.1,72.9,64.9,68.7,65.4,63.1,95,79,53,30.04,29.93,3,1,7,0.33
2013-4-30,88.7,72.3,63.9,71.2,65.8,62.4,97,82,50,30.05,29.96,1,0,6,0.01